Amateur Radio Satellites - All Passes

Search period start: 19 June 2013 02:35
Search period end: 20 June 2013 02:35
Location: PACMO, 41.3967°N, 90.3760°W

Satellite Date Start Highest point End Downlink Frequencies (MHz)
Time Altitude Azimuth
AO-27 19 Jun 02:35:39 02:40:35 40° 98° (E) 02:45:28 436.795 MHz FM
Oscar 16 19 Jun 02:55:31 03:00:41 88° 104° (ESE) 03:05:48 437.025 USB, Beacon 2401.1428
Uribyol 2 19 Jun 03:08:07 03:13:23 83° 104° (ESE) 03:18:35 436.500 FM
PCSat 19 Jun 03:15:17 03:18:43 17° 319° (NW) 03:22:11 145.825 MHz
AO-Echo 19 Jun 03:16:26 03:21:13 37° 97° (E) 03:26:04 ?
SO-50 19 Jun 03:29:48 03:32:58 17° 319° (NW) 03:36:06 436.795 FM
TMSAT-1 19 Jun 03:31:19 03:32:56 11° 88° (E) 03:34:32 436.925 FM
UOSAT-12 19 Jun 03:31:30 03:34:45 20° 111° (ESE) 03:38:01 437.025 FM, 437.400 FM
Uosat F 19 Jun 03:36:28 03:40:14 21° 93° (E) 03:43:58 435.120 FM
Oscar 19 19 Jun 03:50:09 03:54:45 34° 292° (WNW) 03:59:19 437.125 CW, 437.150 USB
Sapphire 19 Jun 03:52:50 03:53:56 11° 326° (NW) 03:55:03 437.095 MHz 1200 baud AX-25 AFSK
Gurwin Techsat 1B 19 Jun 04:08:47 04:13:47 40° 98° (E) 04:18:46 435.225 FM
ITAMSAT 1 19 Jun 04:14:32 04:18:53 27° 295° (WNW) 04:23:12 435.822 SSB
AO-27 19 Jun 04:15:37 04:19:54 26° 295° (WNW) 04:24:09 436.795 MHz FM
KITSAT 1 19 Jun 04:31:09 04:37:39 27° 255° (WSW) 04:44:09 435.175 FM
Oscar 16 19 Jun 04:37:16 04:39:18 12° 301° (WNW) 04:41:19 437.025 USB, Beacon 2401.1428
Uribyol 2 19 Jun 04:49:41 04:52:09 14° 301° (WNW) 04:54:37 436.500 FM
AO-Echo 19 Jun 04:55:32 04:59:50 28° 293° (WNW) 05:04:13 ?
STRAND 1 19 Jun 05:05:13 05:07:33 13° 59° (ENE) 05:09:53 ?
TMSAT-1 19 Jun 05:08:11 05:13:32 86° 285° (WNW) 05:18:50 436.925 FM
UOSAT-12 19 Jun 05:10:14 05:14:35 47° 308° (NW) 05:18:59 437.025 FM, 437.400 FM
Uosat F 19 Jun 05:14:25 05:19:15 46° 290° (WNW) 05:24:04 435.120 FM
AO-7 19 Jun 05:26:12 05:34:05 43° 99° (E) 05:41:53 29.400 - 29.500 MHz
MaSat-1 19 Jun 05:48:08 05:50:39 62° 245° (WSW) 05:53:09 437.345 MHz
Gurwin Techsat 1B 19 Jun 05:49:11 05:53:33 27° 295° (WNW) 05:57:55 435.225 FM
Saudisat 1A 19 Jun 05:59:13 06:02:14 17° 40° (NE) 06:05:12 436.775 MHz
STRAND 1 19 Jun 06:40:54 06:46:01 84° 256° (WSW) 06:51:12 ?
TMSAT-1 19 Jun 06:50:42 06:52:38 12° 302° (WNW) 06:54:34 436.925 FM
Hamsat 19 Jun 06:53:58 06:56:09 13° 90° (E) 06:58:18 145.90 MHz
AO-7 19 Jun 07:19:04 07:26:51 45° 298° (WNW) 07:34:36 29.400 - 29.500 MHz
Saudisat 1A 19 Jun 07:37:55 07:42:27 72° 239° (WSW) 07:46:52 436.775 MHz
SO-67 19 Jun 07:52:33 07:54:52 16° 93° (E) 07:57:10 435.3500 MHz FM
JAS-1B 19 Jun 08:23:11 08:29:00 62° 102° (ESE) 08:35:36 435.800 - 435.900 CW/SSB
Hamsat 19 Jun 08:28:16 08:32:34 54° 286° (WNW) 08:36:48 145.90 MHz
PCSat 19 Jun 08:35:19 08:38:09 14° 39° (NE) 08:40:58 145.825 MHz
SO-50 19 Jun 08:40:37 08:42:19 12° 35° (NE) 08:44:00 436.795 FM
HO-68 19 Jun 09:02:32 09:06:28 15° 89° (E) 09:10:21 435.675 MHz FM
Sapphire 19 Jun 09:09:03 09:13:16 22° 46° (NE) 09:17:28 437.095 MHz 1200 baud AX-25 AFSK
JAS-2 19 Jun 09:15:45 09:17:23 11° 87° (E) 09:19:00 435.800 - 435.900 CW/SSB, 435.910 FM
AO-7 19 Jun 09:16:50 09:17:28 10° 320° (NW) 09:18:06 29.400 - 29.500 MHz
SO-67 19 Jun 09:25:13 09:28:22 29° 288° (WNW) 09:31:30 435.3500 MHz FM
Oscar 11 19 Jun 10:09:10 10:12:45 24° 95° (E) 10:16:18 145.825 FM, Beacon 2401.500 USB
JAS-1B 19 Jun 10:15:13 10:19:20 20° 298° (WNW) 10:23:44 435.800 - 435.900 CW/SSB
PCSat 19 Jun 10:17:07 10:22:34 73° 59° (ENE) 10:27:58 145.825 MHz
SO-50 19 Jun 10:19:17 10:23:49 68° 55° (NE) 10:28:17 436.795 FM
RS-15 19 Jun 10:44:58 10:55:06 34° 105° (ESE) 11:04:52 29.354 - 29.394 USB, Beacon 29.352 USB
HO-68 19 Jun 10:47:49 10:55:03 88° 107° (ESE) 11:02:15 435.675 MHz FM
OPAL 19 Jun 10:48:01 10:51:06 16° 94° (E) 10:54:10 ?
Sapphire 19 Jun 10:51:46 10:57:09 63° 245° (WSW) 11:02:29 437.095 MHz 1200 baud AX-25 AFSK
JAS-2 19 Jun 10:57:52 11:03:18 77° 286° (WNW) 11:08:26 435.800 - 435.900 CW/SSB, 435.910 FM
Oscar 11 19 Jun 11:45:08 11:48:58 30° 291° (WNW) 11:52:47 145.825 FM, Beacon 2401.500 USB
UOSAT-12 19 Jun 12:00:13 12:03:47 22° 43° (NE) 12:07:21 437.025 FM, 437.400 FM
SO-50 19 Jun 12:01:48 12:03:50 13° 252° (WSW) 12:05:52 436.795 FM
PCSat 19 Jun 12:02:16 12:05:20 15° 256° (WSW) 12:08:23 145.825 MHz
OPAL 19 Jun 12:25:28 12:30:21 58° 290° (WNW) 12:35:13 ?
Oscar 16 19 Jun 12:35:47 12:39:00 17° 62° (ENE) 12:42:13 437.025 USB, Beacon 2401.1428
HO-68 19 Jun 12:37:04 12:41:50 19° 305° (NW) 12:46:35 435.675 MHz FM
Uribyol 2 19 Jun 12:49:15 12:52:29 17° 61° (ENE) 12:55:44 436.500 FM
RS-15 19 Jun 12:54:41 13:06:40 73° 306° (NW) 13:18:09 29.354 - 29.394 USB, Beacon 29.352 USB
Oscar 19 19 Jun 13:27:54 13:32:44 42° 70° (ENE) 13:37:34 437.125 CW, 437.150 USB
UOSAT-12 19 Jun 13:39:46 13:44:15 53° 242° (WSW) 13:48:44 437.025 FM, 437.400 FM
ITAMSAT 1 19 Jun 13:52:45 13:57:51 59° 72° (ENE) 14:03:00 435.822 SSB
AO-27 19 Jun 13:53:52 13:59:00 62° 72° (ENE) 14:04:10 436.795 MHz FM
Oscar 16 19 Jun 14:12:42 14:17:50 65° 258° (WSW) 14:22:59 437.025 USB, Beacon 2401.1428
Uribyol 2 19 Jun 14:26:14 14:31:25 67° 258° (WSW) 14:36:39 436.500 FM
AO-Echo 19 Jun 14:29:57 14:34:25 45° 71° (ENE) 14:39:00 ?
AO-7 19 Jun 14:38:21 14:42:03 14° 44° (NE) 14:45:45 29.400 - 29.500 MHz
Uosat F 19 Jun 14:49:52 14:54:09 29° 67° (ENE) 14:58:28 435.120 FM
TMSAT-1 19 Jun 14:51:16 14:55:00 20° 63° (ENE) 14:58:45 436.925 FM
Oscar 19 19 Jun 15:08:08 15:12:14 24° 266° (W) 15:16:21 437.125 CW, 437.150 USB
RS-15 19 Jun 15:11:52 15:21:29 28° 334° (NNW) 15:30:48 29.354 - 29.394 USB, Beacon 29.352 USB
Gurwin Techsat 1B 19 Jun 15:29:56 15:35:10 63° 73° (ENE) 15:40:26 435.225 FM
ITAMSAT 1 19 Jun 15:34:25 15:37:45 17° 269° (W) 15:41:06 435.822 SSB
AO-27 19 Jun 15:35:46 15:38:57 16° 269° (W) 15:42:09 436.795 MHz FM
AO-Echo 19 Jun 16:10:13 16:13:29 19° 268° (W) 16:16:48 ?
ISS 19 Jun 16:18:25 16:21:42 86° 144° (SE) 16:25:00 145.800 FM
AO-7 19 Jun 16:25:00 16:33:05 58° 65° (ENE) 16:41:13 29.400 - 29.500 MHz
Uosat F 19 Jun 16:28:23 16:32:52 33° 263° (W) 16:37:24 435.120 FM
TMSAT-1 19 Jun 16:29:18 16:34:30 56° 260° (W) 16:39:44 436.925 FM
KITSAT 1 19 Jun 17:03:06 17:10:39 46° 111° (ESE) 17:18:15 435.175 FM
Gurwin Techsat 1B 19 Jun 17:12:22 17:15:35 16° 269° (W) 17:18:50 435.225 FM
RS-15 19 Jun 17:30:54 17:39:10 22° 10° (N) 17:47:12 29.354 - 29.394 USB, Beacon 29.352 USB
Hamsat 19 Jun 17:49:40 17:50:53 11° 61° (ENE) 17:52:06 145.90 MHz
ISS 19 Jun 17:56:11 17:58:44 20° 342° (NNW) 18:01:18 145.800 FM
AO-7 19 Jun 18:19:02 18:26:13 32° 264° (W) 18:33:29 29.400 - 29.500 MHz
MaSat-1 19 Jun 18:38:43 18:41:48 15° 107° (ESE) 18:44:33 437.345 MHz
STRAND 1 19 Jun 18:51:56 18:56:35 33° 97° (E) 19:01:11 ?
KITSAT 1 19 Jun 18:58:26 19:06:04 44° 311° (NW) 19:13:47 435.175 FM
JAS-1B 19 Jun 19:08:49 19:15:32 54° 71° (ENE) 19:21:21 435.800 - 435.900 CW/SSB
Hamsat 19 Jun 19:21:58 19:26:18 76° 258° (WSW) 19:30:42 145.90 MHz
HO-68 19 Jun 19:33:21 19:36:36 14° 50° (NE) 19:39:51 435.675 MHz FM
ISS 19 Jun 19:34:33 19:36:22 14° 2° (N) 19:38:11 145.800 FM
RS-15 19 Jun 19:44:50 19:55:27 46° 43° (NE) 20:05:46 29.354 - 29.394 USB, Beacon 29.352 USB
SO-67 19 Jun 20:00:24 20:03:58 83° 258° (WSW) 20:07:34 435.3500 MHz FM
MaSat-1 19 Jun 20:17:59 20:23:30 65° 296° (WNW) 20:27:46 437.345 MHz
STRAND 1 19 Jun 20:31:13 20:35:42 31° 293° (WNW) 20:40:09 ?
KITSAT 1 19 Jun 20:59:32 21:03:57 15° 337° (NNW) 21:08:24 435.175 FM
JAS-1B 19 Jun 21:01:02 21:06:24 24° 265° (W) 21:11:15 435.800 - 435.900 CW/SSB
Oscar 11 19 Jun 21:05:04 21:08:18 21° 66° (ENE) 21:11:33 145.825 FM, Beacon 2401.500 USB
JAS-2 19 Jun 21:08:11 21:15:12 50° 70° (ENE) 21:21:31 435.800 - 435.900 CW/SSB, 435.910 FM
ISS 19 Jun 21:11:04 21:13:54 26° 23° (NNE) 21:16:43 145.800 FM
HO-68 19 Jun 21:15:56 21:22:59 68° 70° (ENE) 21:30:06 435.675 MHz FM
Saudisat 1A 19 Jun 21:45:31 21:49:29 30° 114° (ESE) 21:53:30 436.775 MHz
RS-15 19 Jun 21:57:28 22:08:08 58° 247° (WSW) 22:18:37 29.354 - 29.394 USB, Beacon 29.352 USB
OPAL 19 Jun 22:02:37 22:07:00 31° 65° (ENE) 22:11:22 ?
PANSAT 19 Jun 22:05:10 22:05:50 10° 171° (S) 22:06:30 not established
Oscar 11 19 Jun 22:40:16 22:44:17 36° 262° (W) 22:48:21 145.825 FM, Beacon 2401.500 USB
ISS 19 Jun 22:47:32 22:50:44 51° 220° (SW) 22:53:56 145.800 FM
JAS-2 19 Jun 22:53:53 23:00:19 32° 264° (W) 23:06:15 435.800 - 435.900 CW/SSB, 435.910 FM
KITSAT 1 19 Jun 23:01:09 23:03:43 12° 9° (N) 23:06:18 435.175 FM
HO-68 19 Jun 23:05:51 23:11:13 23° 267° (W) 23:16:38 435.675 MHz FM
Saudisat 1A 19 Jun 23:24:58 23:29:07 33° 312° (NW) 23:33:19 436.775 MHz
OPAL 19 Jun 23:41:24 23:45:51 31° 261° (W) 23:50:17 ?
PANSAT 19 Jun 23:43:57 23:45:24 12° 184° (S) 23:46:50 not established
Sapphire 19 Jun 23:52:44 23:56:01 17° 104° (ESE) 23:59:18 437.095 MHz 1200 baud AX-25 AFSK
SO-50 20 Jun 00:35:33 00:39:14 23° 112° (ESE) 00:42:54 436.795 FM
KITSAT 1 20 Jun 00:55:58 01:02:38 27° 38° (NE) 01:09:16 435.175 FM
PCSat 20 Jun 00:58:51 01:04:12 67° 116° (ESE) 01:09:36 145.825 MHz
Sapphire 20 Jun 01:33:27 01:38:50 68° 301° (WNW) 01:44:15 437.095 MHz 1200 baud AX-25 AFSK
Oscar 19 20 Jun 01:40:58 01:43:42 14° 90° (E) 01:46:26 437.125 CW, 437.150 USB
ITAMSAT 1 20 Jun 02:06:31 02:10:27 21° 93° (E) 02:14:20 435.822 SSB
AO-27 20 Jun 02:07:43 02:11:46 22° 93° (E) 02:15:46 436.795 MHz FM
SO-50 20 Jun 02:15:02 02:19:36 45° 308° (NW) 02:24:07 436.795 FM
Oscar 16 20 Jun 02:24:32 02:29:28 45° 99° (E) 02:34:20 437.025 USB, Beacon 2401.1428

Developed and maintained by Chris Peat, Heavens-Above GmbH. Please read the updated FAQ before sending e-mail. Imprint. DLR
